Location: 5810 Zion Rd, Cleves, OH 45002, USA
(39.1922°N, 84.7113°W)
Time: 17:55:28
(UTC-05:00)

Vanguard 3 - Pass Details

Date: 16 December 2019
Orbit: 508 x 3263 km, 33.3° (Epoch: 17 January)

Event Time Altitude Azimuth Distance (km) Brightness Sun altitude
Rises 13:08:42 0° 274° (W) 5,043 11.3 27.0°
Reaches altitude 10° 13:12:09 10° 264° (W) 4,420 11.2 26.9°
Maximum altitude 13:22:44 30° 210° (SSW) 3,944 12.6 26.5°
Drops below altitude 10° 13:37:18 10° 158° (SSE) 6,091 12.5 25.8°
Sets 13:43:19 0° 149° (SSE) 7,214 12.6 25.4°
